www.pogodaiklimat.ru

Погода и климат >> Архив погоды >> Россия >> Чечня >> Грозный


АРХИВ ПОГОДЫ в Грозном

Время (UTC), дата Ветер
(напр.,м/с)
 
Видим.   Явления Облачность Т
(С)
Тd
(С)
f
(%)
Тe
(С)
Тes
(С)
Комфортность P
(гПа)
Po
(гПа)
Тmin
(С)
Tmax
(С)
R
(мм)
R24
(мм)
S
(см)
21 16.05 В 1 10 км ясно +16.4 +14.7 90 +17 +17 тепло 1014.0 983.8
00 17.05 В 1 10 км ясно +14.7 +13.8 94 +15 +15 тепло 1013.7 983.3
03 17.05 З 1 20 км ясно +15.7 +13.4 86 +16 +18 тепло 1013.7 983.4 +13.9
06 17.05 В 2 20 км ясно +22.7 +14.2 59 +26 +38 жарко 1012.6 983.1
09 17.05 В 3 20 км ясно +27.4 +11.4 37 +28 +44 жарко 1011.2 982.0
12 17.05 В 4 20 км ясно +27.6 +12.6 39 +29 +37 жарко 1009.8 980.8
15 17.05 В 4 20 км ясно +24.7 +11.9 45 +26 +27 жарко 1010.1 980.7 +28.0
18 17.05 штиль 0 10 км 3/0
[Ci fib]
+17.5 +11.5 68 +18 +18 тепло 1011.1 981.0
21 17.05 В 1 10 км 5/0
[Ac lent Ci fib]
+13.8 +11.9 88 +14 +14 по сезону 1010.7 980.1
00 18.05 В 1 10 км 5/0
[Ac lent Ci fib]
+12.3 +11.4 94 +12 +12 по сезону 1010.3 979.7
03 18.05 В 1 20 км ясно +14.2 +12.6 90 +14 +16 по сезону 1010.3 979.9 +12.0
06 18.05 В 2 20 км {туман} 3/0
[]
+21.1 +14.1 64 +24 +34 комфорт 1009.2 979.5
09 18.05 В 2 20 км ясно +23.0 +15.5 63 +27 +46 душно 1008.9 979.4
12 18.05 ЮВ 2 20 км 4/0
[Ac lent]
+26.7 +16.6 54 +30 +38 душно 1007.2 978.2
15 18.05 В 2 20 км 8/5 1000 м
[Sc Ac lent]
+23.3 +13.7 55 +27 +27 душно 1006.8 977.4 +27.0
18 18.05 ЮВ 2 10 км 10/10 600 м
[Sc]
+18.7 +14.6 77 +20 +20 тепло 1008.2 978.2
21 18.05 ЮВ 1 10 км 10/10 600 м
[Sc]
+15.7 +14.3 91 +16 +16 тепло 1007.4 977.3
00 19.05 ЮВ 1 500 м туман ?/? +14.7 +14.2 97 +15 +15 тепло 1007.4 977.1
03 19.05 ЮЗ 1 500 м туман ?/? +14.8 +14.6 99 +15 +15 по сезону 1007.7 977.6 +14.6
06 19.05 штиль 0 4000 м в посл. час туман 10/10 300 м
[St]
+15.9 +15.6 98 +16 +16 по сезону 1009.0 978.8
09 19.05 В 3 20 км 8/0
[Ac lent]
+23.4 +15.1 60 +28 +33 душно 1008.2 978.8
12 19.05 ЮВ 2 20 км 8/5 1000 м
[Sc Ac lent]
+24.8 +15.0 54 +28 +31 жарко 1008.1 979.0
15 19.05 ЮЗ 1 20 км 10/10 1000 м
[Sc]
+21.4 +17.5 78 +25 +25 комфорт 1010.1 980.4 +26.4
18 19.05 ЮЗ 2 10 км 10/10 1000 м
[Sc]
+17.6 +16.3 92 +18 +18 тепло 1011.2 981.2
21 19.05 ЮВ 1 10 км 10/10 600 м
[Sc]
+18.6 +16.8 89 +21 +21 комфорт 1011.7 981.7
00 20.05 В 1 10 км 9/9 600 м
[Sc]
+16.9 +15.5 91 +18 +18 тепло 1012.0 981.9
03 20.05 В 1 20 км 8/8 1000 м
[Sc]
+18.5 +16.5 88 +20 +21 тепло 1012.0 982.0 +16.2
06 20.05 ЮЗ 2 20 км 9/9 1000 м
[Sc]
+21.5 +16.4 73 +25 +26 комфорт 1012.9 983.2
09 20.05 В 1 4000 м слаб. ливневой дождь 10/10 300 м
[Cb cap]
+18.8 +15.6 82 +21 +21 комфорт 1015.5 985.3
12 20.05 ЮВ 2 20 км {ливн. осадки} 8/5 1000 м
[Sc Ac lent]
+20.7 +14.9 69 +24 +27 комфорт 1015.1 985.0
15 20.05 ЮВ 1 н/о н/о +20.8 +15.0 69 +25 +25 комфорт 1015.1 985.2
18 20.05 штиль 0 10 км 9/4 600 м
[Sc Ac As]
+17.4 +16.1 92 +17 +17 тепло 1016.9 986.6
21 20.05 В 1 10 км 8/3 600 м
[Sc Ac lent]
+15.5 +14.2 92 +16 +16 тепло 1017.3 986.8
00 21.05 В 1 10 км 9/3 600 м
[Sc Ac lent]
+14.4 +13.4 94 +15 +15 тепло 1017.4 986.8
03 21.05 штиль 0 20 км 8/8 1000 м
[Sc]
+15.1 +14.0 93 +15 +15 по сезону 1018.4 987.8 +14.2
06 21.05 СВ 2 20 км 3/0
[Ac lent]
+20.1 +13.9 67 +23 +32 комфорт 1018.2 988.1 +13.8
09 21.05 В 4 20 км 4/0
[Ac lent Ci fib]
+23.5 +12.8 51 +26 +36 жарко 1017.6 987.9
12 21.05 В 4
{11}
20 км 1/0
[Ac lent]
+23.3 +9.6 42 +25 +32 комфорт 1017.6 987.8
15 21.05 В 4 20 км 3/0
[Ac lent]
+19.6 +9.2 51 +21 +21 комфорт 1018.0 987.9 +24.5
18 21.05 В 4 10 км ясно +14.6 +8.0 65 +13 +13 по сезону 1019.2 988.5 +24.5
21 21.05 В 1
{11}
10 км ясно +11.2 +9.5 89 +11 +11 прохладно 1019.1 988.1
00 22.05 ЮВ 2 10 км ясно +9.0 +8.5 97 +7 +7 холодно 1017.8 986.6
03 22.05 штиль 0 20 км ясно +10.8 +10.0 95 +10 +12 прохладно 1016.9 985.8 +8.3
06 22.05 З 1 20 км 5/3 1000 м
[Sc Ac lent]
+15.9 +11.3 74 +17 +24 по сезону 1015.2 984.8
09 22.05 ЮВ 2 20 км 8/5
[Sc Ac lent]
+20.4 +10.8 54 +23 +28 комфорт 1012.9 983.0
12 22.05 ЮЗ 1 20 км 9/9 1000 м
[Sc]
+23.7 +11.4 46 +25 +27 комфорт 1010.8 981.3
15 22.05 штиль 0 20 км 10/10 1000 м
[Sc diur, vesp]
+19.8 +12.2 62 +21 +21 комфорт 1013.4 983.5 +24.2
18 22.05 штиль 0 10 км {ливн. осадки} 6/0
[Ac cuf]
+15.6 +15.0 96 +15 +15 по сезону 1015.6 985.2
21 22.05 штиль 0 10 км ясно +13.3 +13.0 98 +13 +13 по сезону 1014.6 984.0
00 23.05 штиль 0 10 км в посл. час туман 8/0
[Ac As]
+13.1 +13.0 99 +13 +13 по сезону 1014.1 983.5
03 23.05 штиль 0 20 км 3/0
[Ac lent]
+14.2 +13.4 95 +14 +15 по сезону 1013.7 983.2 +12.4 2
06 23.05 ЮЗ 1 20 км 8/8 1000 м
[Sc]
+19.5 +15.3 77 +22 +25 комфорт 1012.9 982.9
09 23.05 СВ 1 20 км 10/10 600 м
[Frnb]
+21.9 +12.8 56 +24 +24 комфорт 1011.8 982.1
12 23.05 ЮВ 2 20 км 5/0
[Ac lent Ci]
+23.9 +11.8 47 +26 +34 жарко 1009.8 980.4
15 23.05 СЗ 2 20 км 9/9 1000 м
[Sc]
+22.2 +12.0 52 +25 +25 комфорт 1010.4 980.8 +24.6
18 23.05 Ю 2 10 км 10/10 600 м
[Sc diur, vesp]
+15.9 +12.5 80 +16 +16 по сезону 1013.7 983.3

 

Местоположение метеостанции Грозный (Чечня, Россия): широта 43.25 долгота 45.72 высота над уровнем моря 258 м.

В архиве по умолчанию представлена погода в Грозном за последнюю неделю. Архивные данные за месяц целиком и за предыдущие месяцы, начиная с января 2011 года, Вы можете получить, выбрав интересующий диапазон дат из раскрывающегося списка и нажав кнопку "Ввод!".


*Определитесь, кто Вы:
робот инопланетянин человек

Внимание! Время в таблицах - всемирное. Для получения местного времени необходимо прибавить поправку, которая равна 3 ч.

Смотрите также архив погоды в соседних городах и на ближайших метеорологических станциях:

Погода в Гудермесе (Чечня, Россия) (34 км)
Погода в Шатое (Чечня, Россия) (41 км)
Погода в Наурской (Чечня, Россия) (55 км)
Погода в Шелковской (Чечня, Россия) (61 км)
Погода в Хасавюрте (Дагестан, Россия) (70 км)
Погода в Назрани (Ингушетия, Россия) (71 км)
Погода в Владикавказе (Северная Осетия, Россия) (88 км)
Погода в Бабаюрте (Дагестан, Россия) (94 км)
Погода в Терекли-Мектебе (Дагестан, Россия) (99 км)
Погода в Моздоке (Северная Осетия, Россия) (100 км)

Пояснения к столбцам:

Ветер - указаны скорость ветра в м/с - средняя за 10 мин, порывы в срок и между сроками (в фигурных скобках) и направление, откуда дует ветер: С - северный, СВ - северо-восточный, В - восточный, ЮВ - юго-восточный, Ю - южный, ЮЗ - юго-западный, З - западный, СЗ - северо-западный.
Видимость - горизонтальная дальность видимости в метрах или километрах. При видимости от 1 до 10 км при отсутствии осадков обычно наблюдается дымка, при ухудшении видимости до 1 км и менее - туман. В сухую погоду видимость может ухудшаться дымом, пылью или мглою.
Явления - указаны атмосферные явления, наблюдавшиеся в срок или в последний час перед сроком; фигурными скобками обозначены явления, наблюдавшиеся между сроками (за 1-3 часа до срока); квадратными скобками обозначены град или гололедные отложения с указанием их диаметра в мм.
Облачность - указаны через наклонную черту общая и нижняя облачность в баллах и высота нижней границы облаков в метрах; квадратными скобками обозначены формы облаков: Ci - перистые, Cs - перисто-слоистые, Cc - перисто-кучевые, Ac - высококучевые, As - высокослоистые, Sc - слоисто-кучевые, Ns - слоисто-дождевые, Cu - кучевые, Cb - кучево-дождевые. Подробнее классификацию облаков см. в Атласе облаков (PDF).
T - Температура воздуха - температура, измеренная на высоте 2 м над землей.
Td - Температура точки росы - температура, при понижении до которой содержащийся в воздухе водяной пар достигнет насыщения.
f - Относительная влажность воздуха - влажноcть воздуха, измеренная на высоте 2 м над землей.
Te - Эффективная температура - температура, которую ощущает одетый по сезону человек в тени. Характеристика душности погоды. При расчете учитывается влияние влажности воздуха и скорости ветра на теплоощущения человека.
Tes - Эффективная температура на солнце - температура, которую ощущает человек, с поправкой на солнечный нагрев. Характеристика знойности погоды. Зависит от высоты солнца над горизонтом, облачности и скорости ветра. Ночью, в пасмурную погоду, а также при ветре 12 м/с и более поправка равна нулю.
P - Атмосферное давление - приведенное к уровню моря атмосферное давление.
Po - Атмосферное давление - измеренное на уровне метеостанции атмосферное давление.
Tmin - Минимальная температура - минимум температуры воздуха на высоте 2 м над землей.
Tmax - Максимальная температура - максимум температуры воздуха на высоте 2 м над землей.
R - Количество осадков - Количество выпавших осадков за период времени, мм. При наведении курсора мыши на число - период времени, за который выпало указанное количество осадков.
R24 - Количество осадков - Количество выпавших осадков за 24 часа, мм.
S - Снежный покров - Высота снежного покрова, см. При наведении курсора мыши на число - состояние снежного покрова и степень покрытия местности в баллах.